Location: ???????
(55.4362°N, 38.1183°E)
Time: 01:04:04
(UTC+00:00)

Cosmos 1937 Rocket - Pass Details

Date: 17 June 2021
Orbit: 746 x 780 km, 74.0° (Epoch: 05 August)

Event Time Altitude Azimuth Distance (km) Brightness Sun altitude
Rises 22:19:14 0° 332° (NNW) 3,276 7.6 -10.4°
Reaches altitude 10° 22:21:38 10° 333° (NNW) 2,346 6.8 -10.4°
Maximum altitude 22:27:00 83° 61° (ENE) 795 3.6 -10.2°
Drops below altitude 10° 22:32:19 10° 150° (SSE) 2,331 5.6 -10.0°
Enters shadow 22:33:57 - 151° (SSE) 2,961 6.1 -9.9°
